Weather Service Report


948 
ASUS44 KOUN 162310
RWROK 

WEATHER ROUNDUP FOR OKLAHOMA
NATIONAL WEATHER SERVICE NORMAN OK
600 PM CDT TUE SEP 16 2014

NOTE: "FAIR" INDICATES FEW OR NO CLOUDS BELOW 12,000 FEET WITH NO
      SIGNIFICANT WEATHER AND/OR OBSTRUCTIONS TO VISIBILITY.

OKZ001>007-009>012-014-015-017-170000-
NORTHWEST OKLAHOMA AND THE PANHANDLE
  
CITY           SKY/WX    TMP DP  RH WIND       PRES   REMARKS
GAGE           MOSUNNY   86  62  44 S14       30.02F                  
$$

OKZ016-021>023-033>039-044-045-170000-
SOUTHWEST OKLAHOMA
  
CITY           SKY/WX    TMP DP  RH WIND       PRES   REMARKS
LAWTON/REGL    PTSUNNY   87  64  46 S9        30.00F                  
LAWTON/FT SILL PTSUNNY   86  67  52 S8        30.00S                  
FREDERICK      PTSUNNY   88  66  48 S10       29.98F HX  90           
CLINTON        MOSUNNY   87  64  46 S13       30.04F                  
HOBART         PTSUNNY   86  64  47 SW13      30.02F                  
ALTUS AFB      PTSUNNY   88  67  49 S10       30.01F HX  90           
$$

OKZ018>020-024>031-170000-
CENTRAL OKLAHOMA
  
CITY           SKY/WX    TMP DP  RH WIND       PRES   REMARKS
OKLAHOMA CITY  PTSUNNY   86  70  58 NE9       30.01F HX  90           
OKC/WILEY POST MOSUNNY   83  71  67 E5        30.01F                  
OKC/TINKER AFB SUNNY     84  71  64 E9        30.01F                  
STILLWATER     MOSUNNY   80  67  64 E7        30.02F                  
GUTHRIE        SUNNY     82  69  64 E8        30.01F                  
$$

OKZ008-013-054>072-170000-
NORTHEAST OKLAHOMA
  
CITY           SKY/WX    TMP DP  RH WIND       PRES   REMARKS
TULSA          MOSUNNY   78  65  63 CALM      30.02F                  
TULSA/JONES    SUNNY     78  65  63 N3        30.03F                  
PONCA CITY     SUNNY     76  65  68 E10       30.02F                  
BARTLESVILLE   CLOUDY    74  66  76 E3        30.05F                  
MUSKOGEE       SUNNY     80  69  69 NE7       30.04F                  
$$

OKZ032-040>043-046>053-073>077-170000-
SOUTH CENTRAL/SOUTHEAST OKLAHOMA
  
CITY           SKY/WX    TMP DP  RH WIND       PRES   REMARKS
ARDMORE/DWNTWN MOSUNNY   82  68  61 CALM      30.00F                  
MCALESTER      MOSUNNY   87  69  54 CALM      30.00F HX  91           
$$


Return to Home page


Western Regional Climate Center, wrcc@dri.edu